sat.trackr.live / text

‹ back to catalog

ONEWEB-0269

NORAD 48987 · 2021-060W

PAYLOAD ACTIVE UNKNOWN

§ Identity

Operator
Country
UK
Launch date
2021-07-01
Launch site
VOSTO
Launch vehicle
Mass (kg)
RCS (m²)

Purposes: comms

External: N2YO · Heavens-Above · Gunter

§ Orbital elements

Epoch: 2026-09-14T20:13:13.431648Z

Period
109.37 min
Inclination
87.9141°
Eccentricity
0.0002000
Mean motion
13.16594512 rev/d
Perigee alt
1,196.2 km
Apogee alt
1,199.3 km
Semi-major
7,575.9 km
B*
-4.7192e-5
RAAN
210.9768°
Arg perigee
87.5681°
Mean anomaly
272.5679°
Rev number
25,142

§ Raw data

ONEWEB-02691 48987U 21060W   26257.84251657 -.00000005  00000+0 -47192-4 0  99982 48987  87.9141 210.9768 0002000  87.5681 272.5679 13.16594512251427

JSON: /api/v1/satellites/48987 · /tle

For live sub-satellite position, see the globe view (requires WebGL).

§ Visibility from observer

Set your observer location to see the next 7 days of passes ≥ 10°. The values pass through the URL so the page stays shareable.

No JS? Fill the form by hand. The geolocation button needs JavaScript.